Wind_Speed
35 31 31 28 28 27 23 21 18 16 14 13 12 11 12 13 14 15 17 19 20 20 20 17 14 15 8 5 7 10 18 15 12 7 4 4 3 2 5 4 5 16 15 17 14 13 11
40 37 35 33 34 30 25 22 20 18 15 14 13 12 12 13 15 16 19 20 20 21 21 17 10 5 3 3 2 11 14 8 10 10 6 1 4 6 8 7 8 8 18 20 18 18 12
45 43 39 36 37 32 28 26 23 20 16 15 13 12 11 13 15 17 19 20 22 24 21 11 5 2 2 10 10 8 17 13 11 8 3 7 8 4 4 7 9 8 16 21 22 10 8
50 48 43 42 42 38 33 29 26 21 19 16 13 12 12 12 13 17 18 20 23 19 9 5 5 5 6 5 14 14 16 9 13 16 9 8 13 6 4 7 4 16 11 19 18 9 11
52 51 48 47 47 41 36 32 28 21 19 16 13 12 11 11 12 16 18 20 16 6 3 7 9 3 7 9 7 12 8 7 14 15 12 12 10 7 3 4 6 7 18 21 29 19 17
53 55 53 50 48 45 39 35 31 25 21 17 13 11 10 8 11 13 18 17 4 6 9 7 4 0 6 2 8 13 19 13 6 4 5 2 2 1 2 3 13 13 11 12 17 18 18
56 54 56 52 50 46 39 35 30 25 22 17 13 11 7 5 8 9 17 4 6 3 5 2 2 4 6 9 18 8 21 7 4 2 3 3 1 7 10 6 11 11 14 21 20 18 23
62 59 58 55 52 47 41 32 31 27 20 17 14 9 4 3 4 6 10 5 4 2 6 3 5 7 17 6 5 8 6 2 2 8 3 5 16 13 12 12 12 16 21 26 24 17 12
60 63 60 56 54 48 41 33 29 25 21 17 13 8 6 2 1 7 14 5 1 5 1 6 5 5 6 8 5 7 6 4 7 12 9 12 15 11 9 13 16 20 18 19 21 20 13
63 63 59 57 55 50 42 34 30 24 21 17 12 8 4 2 7 5 4 8 2 3 4 3 1 2 4 4 3 20 2 1 3 5 5 10 12 16 17 19 15 20 14 17 12 8 12
60 65 63 61 57 50 46 37 31 27 20 16 14 8 5 5 9 7 3 4 1 1 1 2 1 1 7 2 7 4 10 2 5 10 2 10 11 11 13 19 13 18 13 16 19 15 8
63 66 65 61 56 49 46 41 32 25 20 17 13 10 8 8 7 7 2 1 3 2 3 2 2 5 8 3 8 5 4 1 6 5 5 16 3 5 11 17 13 11 5 12 14 5 7
66 68 71 64 56 52 45 37 35 28 21 17 14 10 11 10 7 4 1 5 1 3 3 3 3 6 4 7 6 7 7 9 5 7 7 11 3 5 7 6 5 3 2 3 3 1 5
69 70 69 64 59 55 47 39 34 29 23 19 15 11 9 9 9 3 4 2 4 3 1 2 4 4 2 5 6 9 7 5 2 6 8 5 9 4 4 5 5 5 6 4 3 1 3
73 72 67 65 60 54 48 39 35 26 21 19 14 9 5 7 10 5 3 2 3 3 1 3 2 3 4 4 1 5 4 4 3 6 6 6 6 3 11 16 6 2 4 6 7 5 2
73 71 67 63 59 53 45 39 33 28 24 21 15 8 4 11 11 6 3 4 4 1 2 1 1 1 2 5 7 8 4 3 6 9 11 4 7 4 7 0 3 4 3 3 1 3 4
79 73 69 63 59 52 43 36 33 28 25 22 11 4 8 14 10 3 3 4 3 3 3 2 4 1 3 3 2 4 5 10 4 15 16 10 5 7 3 3 2 4 4 4 4 3 2
73 71 67 62 55 50 45 35 31 29 26 19 6 4 14 14 2 0 3 4 2 2 1 0 3 5 5 2 2 2 6 4 9 12 11 5 4 5 8 4 4 2 8 4 2 1 2
65 64 61 57 51 45 39 34 30 29 28 12 4 3 5 5 3 1 3 3 2 2 1 2 2 4 2 4 1 5 4 8 12 10 4 5 4 6 6 1 1 2 6 6 4 2 4
56 57 52 49 46 41 35 31 27 28 23 8 4 3 2 2 1 6 4 3 3 0 2 2 3 4 1 2 4 5 4 8 13 3 13 3 4 3 7 12 10 7 6 2 3 2 8
51 49 47 45 41 38 32 28 25 26 20 5 2 3 4 4 3 5 4 4 4 1 1 1 1 1 2 2 4 5 6 7 6 4 7 2 3 4 11 14 15 20 17 5 10 11 7
44 45 42 40 37 33 29 24 23 22 17 4 4 4 2 4 5 6 4 6 7 3 3 2 2 5 3 4 7 13 8 0 7 5 6 4 4 2 4 16 20 18 22 22 17 11 10
38 38 37 37 34 29 24 22 21 19 11 4 3 2 4 2 4 5 5 6 7 5 1 4 2 1 3 6 7 15 14 15 13 9 4 3 3 3 2 7 5 11 16 17 14 20 7
36 34 34 33 30 26 23 20 18 14 7 7 4 4 4 1 3 4 7 3 5 2 3 1 2 1 4 8 12 9 8 10 9 12 11 4 5 2 2 1 5 2 11 8 18 16 14
35 34 33 32 29 25 21 20 18 14 12 16 7 3 3 3 2 4 7 6 3 4 2 3 1 2 6 5 4 5 4 5 3 4 4 4 2 2 2 5 5 3 7 6 6 9 14
31 34 34 32 28 24 21 21 19 16 17 19 14 8 5 6 1 0 4 2 3 1 4 2 4 5 6 2 2 2 2 3 4 8 3 4 9 2 3 3 2 4 15 9 4 4 10
30 30 31 29 25 22 21 21 19 15 14 15 10 8 6 4 2 2 3 4 4 2 2 2 5 6 4 3 2 2 2 2 3 5 5 4 3 6 4 3 4 11 11 4 2 2 5
29 29 30 26 22 21 21 21 19 16 15 13 12 10 5 3 1 2 1 4 2 3 3 3 3 4 4 4 2 2 2 2 2 2 3 4 3 3 2 3 2 14 4 3 4 4 6
30 30 27 24 22 22 19 19 18 16 14 14 7 10 9 5 3 0 1 4 3 7 4 1 3 1 2 3 1 1 2 3 3 1 4 3 3 2 4 3 3 5 9 8 6 6 4
Wind_Direction
234 229 228 226 226 228 228 231 234 240 242 251 247 261 279 293 301 309 314 320 327 331 336 332 326 331 1 14 257 351 349 6 16 9 325 350 319 249 200 238 273 255 277 283 291 283 297
233 232 228 225 224 228 225 227 232 235 235 246 255 250 270 288 299 311 320 324 323 324 327 319 314 340 53 320 334 342 354 354 13 17 348 211 245 252 271 230 222 294 295 300 297 298 284
231 231 225 222 224 226 227 224 227 229 234 243 249 261 263 285 304 314 319 323 319 320 316 304 274 156 140 246 329 309 347 325 317 324 227 285 266 174 296 312 258 252 299 298 289 305 286
227 227 224 219 221 224 225 222 225 221 229 234 246 256 267 286 305 315 320 322 316 321 320 295 168 158 244 285 317 308 335 330 346 328 236 254 250 226 194 227 281 270 279 285 285 320 304
233 224 222 216 221 221 221 221 220 218 225 233 240 250 268 289 316 318 322 323 328 348 21 108 138 156 271 308 297 315 309 273 305 312 294 276 239 201 172 229 273 223 263 264 284 281 286
233 221 219 215 215 216 217 217 215 214 218 229 237 248 259 294 318 325 330 324 38 121 73 109 93 62 274 313 284 297 304 298 253 281 323 301 18 288 239 132 259 287 288 290 292 302 289
226 224 215 214 211 209 212 209 214 213 213 220 237 239 259 300 316 347 352 2 16 337 43 216 162 267 288 289 299 282 298 300 283 124 242 240 222 233 253 218 248 260 270 274 263 257 269
224 222 214 208 205 204 204 202 202 207 213 219 225 231 243 286 321 47 43 77 141 210 320 275 244 260 267 257 315 288 336 287 301 289 296 296 260 256 241 246 257 262 264 262 276 267 271
226 224 210 204 201 198 198 190 199 205 206 215 221 217 206 248 110 102 88 67 286 153 77 297 216 227 271 161 270 284 351 300 271 275 268 247 257 275 237 255 263 256 255 269 272 276 275
232 209 205 199 193 188 189 188 189 203 203 206 219 208 212 162 157 110 101 15 96 158 63 275 259 292 342 272 284 320 190 251 311 299 275 264 278 250 254 257 255 265 255 257 282 305 275
226 212 204 194 187 185 184 184 189 193 201 206 197 204 188 179 125 123 104 10 314 156 89 347 222 139 318 59 283 311 322 355 244 266 308 258 283 274 274 259 256 274 263 243 248 259 291
222 205 194 185 179 180 180 178 183 192 198 198 196 186 183 134 140 132 352 118 153 34 240 1 25 346 342 327 334 295 334 316 249 306 216 255 211 240 236 256 245 255 271 243 250 242 246
215 199 188 179 174 173 176 178 175 182 190 196 191 196 174 149 139 121 101 124 42 189 3 10 341 336 346 319 332 7 325 334 1 331 325 305 206 253 217 267 229 186 23 318 281 317 239
203 191 179 171 167 170 173 175 171 179 185 189 184 194 179 154 172 129 149 89 204 83 330 70 295 319 353 7 344 330 316 336 349 350 307 311 321 186 201 213 209 206 172 210 258 251 271
186 175 170 163 162 166 167 167 173 174 182 181 174 167 154 173 186 179 110 105 196 181 219 317 329 8 331 349 222 357 308 291 346 351 310 302 275 320 283 263 141 291 183 236 285 297 255
173 164 160 157 158 162 162 163 165 170 181 173 151 133 147 159 160 151 89 190 178 126 107 13 129 123 336 318 3 356 311 284 321 330 335 278 284 268 290 356 199 242 322 340 86 297 335
160 157 155 153 156 156 155 162 164 166 176 164 127 109 147 161 161 69 159 200 150 87 129 170 198 145 232 275 256 334 294 295 294 321 324 287 215 299 311 33 315 332 306 219 211 167 107
153 150 148 147 148 150 154 164 162 165 164 157 136 104 154 164 97 257 157 190 119 87 76 124 142 185 199 177 295 303 245 227 284 320 303 300 288 281 282 152 133 321 274 252 189 321 61
139 137 136 143 145 147 152 161 163 163 164 151 102 112 147 182 151 237 232 133 112 123 234 189 238 171 93 184 344 203 256 256 292 321 292 333 288 304 305 131 199 211 252 289 83 53 184
120 127 135 138 139 144 154 156 158 170 170 139 106 112 47 60 209 141 139 136 138 290 229 226 229 90 63 294 185 276 279 299 313 268 293 295 275 293 279 280 318 286 269 313 67 343 87
120 124 129 131 139 146 150 154 161 163 166 142 51 169 173 184 233 141 114 143 139 198 218 84 89 59 229 314 303 225 255 309 307 290 345 10 281 7 37 46 47 39 30 137 86 43 49
124 127 131 137 141 143 149 149 153 160 161 99 128 135 54 120 128 113 146 191 179 201 175 279 161 298 278 214 211 289 301 252 257 318 345 8 315 301 60 68 45 43 30 44 66 80 92
125 129 132 136 140 140 139 149 153 158 157 110 116 81 108 6 116 117 197 170 193 157 1 87 134 353 279 256 249 265 260 260 254 285 298 281 313 315 328 10 318 36 13 32 49 32 19
130 133 137 138 137 138 142 141 147 156 168 120 122 115 91 135 126 184 154 139 122 137 141 5 15 11 255 307 295 272 246 241 229 255 218 258 294 266 272 102 43 113 26 31 58 34 30
135 138 138 140 139 137 136 140 138 124 137 129 114 110 116 97 108 87 125 126 89 42 62 195 289 248 308 312 329 328 346 13 199 263 342 52 295 285 328 53 123 78 21 335 13 45 18
137 139 139 137 135 135 136 138 132 121 119 117 87 88 95 119 267 67 104 119 114 45 358 338 322 318 26 24 19 351 46 323 322 330 35 57 58 335 81 75 84 37 330 317 289 62 26
138 139 138 137 137 136 137 138 137 132 129 122 76 97 92 104 265 124 141 138 118 115 137 307 329 349 31 21 54 23 309 314 317 349 335 344 21 20 12 95 85 346 324 325 255 90 45
142 141 140 139 136 138 138 137 135 127 127 133 84 78 99 103 295 23 80 117 88 88 123 283 36 347 23 53 33 325 328 16 276 351 346 23 349 16 329 71 48 353 30 65 90 94 91
143 142 145 141 136 138 135 134 133 128 124 126 92 87 82 88 158 324 259 223 124 163 133 26 172 219 174 83 10 347 351 331 321 32 5 39 25 54 18 88 68 25 62 57 64 51 85
Height
800 804 809 808 812 812 813 815 817 817 816 817 815 815 816 815 813 810 808 805 804 803 802 800 799 797 794 795 789 782 781 780 778 778 779 779 779 778 779 776 775 766 757 751 749 747 748
793 796 802 803 804 808 809 812 814 814 813 814 815 811 812 813 811 808 806 804 801 801 799 798 798 798 799 798 784 783 781 780 779 778 777 777 778 776 778 773 775 765 758 755 747 745 747
786 789 794 797 800 802 805 807 808 810 811 813 812 811 808 810 809 807 804 802 798 798 795 794 795 796 799 791 782 779 778 777 776 776 775 774 773 775 775 773 767 765 766 754 745 750 747
777 780 785 790 791 796 800 802 804 804 808 809 810 808 807 807 807 804 802 800 796 793 790 791 793 796 793 781 780 778 777 775 773 772 770 768 769 769 771 769 766 767 768 758 738 748 747
768 771 777 780 784 789 793 798 799 801 805 807 805 804 805 805 804 802 801 797 793 791 789 790 794 795 791 781 778 777 776 773 772 769 766 765 763 764 765 770 772 763 764 760 744 744 745
760 761 766 772 776 781 787 791 792 796 800 802 803 802 801 802 802 801 799 794 792 792 792 793 793 797 785 779 777 775 772 770 768 766 765 763 766 770 771 777 772 768 768 767 761 747 744
750 755 755 763 769 774 781 785 790 794 795 797 802 799 799 800 799 800 797 793 795 794 792 791 792 792 784 779 775 770 767 766 765 766 771 767 775 779 767 767 762 763 762 756 745 749 741
735 745 748 753 759 767 773 782 783 788 793 795 797 798 798 799 800 799 799 802 802 805 802 789 790 792 782 779 778 767 767 770 765 769 766 771 765 756 753 755 754 753 754 746 734 733 739
725 733 736 743 751 758 770 772 783 787 786 794 795 796 795 797 800 801 800 804 804 801 808 792 785 784 777 777 773 768 766 765 765 764 764 770 751 745 750 750 749 744 750 745 743 728 722
716 718 726 734 741 748 761 769 774 783 785 789 795 794 797 794 801 800 802 805 804 801 808 785 780 777 776 772 772 763 763 766 765 764 760 759 745 744 745 744 743 747 732 735 733 736 739
704 706 714 725 731 740 752 762 773 778 783 786 788 794 793 795 794 798 804 803 806 803 789 781 779 777 776 778 775 767 763 763 765 761 763 750 746 745 744 734 732 731 723 725 721 725 737
686 695 700 712 719 737 746 752 766 775 781 783 788 789 793 791 794 798 800 801 806 807 787 783 780 783 783 776 774 768 766 762 758 759 756 749 740 740 732 722 725 719 719 718 721 726 729
668 679 687 700 712 727 742 754 756 768 777 781 785 789 790 788 792 796 798 800 807 802 786 788 789 785 787 786 778 775 775 769 769 764 755 744 733 732 725 729 718 720 726 742 730 750 715
647 664 675 686 701 718 731 748 754 764 773 779 781 787 785 786 791 795 797 802 799 788 789 785 786 789 793 791 784 784 779 778 766 769 763 757 726 718 715 716 715 720 724 728 725 701 690
629 649 667 677 692 711 725 740 749 760 771 775 778 782 782 785 790 792 798 809 789 790 785 789 790 795 797 789 791 787 785 777 770 771 769 752 747 716 713 705 713 707 717 701 717 698 697
618 640 659 672 688 704 722 735 743 756 767 771 772 777 782 785 789 792 800 788 786 781 783 786 797 797 812 797 796 788 784 770 770 765 761 754 747 717 706 704 708 708 705 708 712 705 729
609 632 648 666 683 701 718 733 744 752 764 767 767 776 780 786 789 794 803 791 781 780 782 788 800 801 798 810 802 804 791 776 767 762 762 751 754 722 706 711 718 713 708 705 701 705 720
610 626 642 662 679 699 713 735 742 749 756 762 765 778 778 786 795 805 799 786 777 782 782 785 787 793 802 808 798 803 802 780 765 763 764 748 745 739 714 705 709 713 705 698 707 702 703
615 627 643 663 684 701 717 732 739 743 751 755 763 775 779 781 795 799 786 779 778 782 784 784 786 790 798 812 806 805 801 773 766 764 757 752 737 733 715 710 711 712 704 694 698 701 704
621 635 658 671 685 704 722 729 735 744 748 749 760 777 781 783 786 782 783 782 783 781 784 782 783 786 793 803 796 803 796 773 763 762 754 752 744 741 735 725 722 713 702 696 703 701 710
636 651 668 677 696 709 720 728 737 739 744 748 758 767 767 783 786 781 782 784 785 788 781 781 782 785 792 805 796 798 785 778 762 758 754 754 749 745 743 738 731 727 715 702 707 718 721
658 666 676 689 702 713 722 728 732 739 744 747 758 762 768 771 773 778 782 785 785 782 781 782 784 787 786 791 791 784 783 781 776 762 759 754 752 749 742 745 741 741 737 732 727 738 745
669 678 687 696 706 715 721 730 735 739 743 747 753 756 759 775 777 783 786 780 781 779 778 781 784 785 784 784 781 775 772 769 768 768 767 759 753 744 741 732 736 742 761 755 752 755 749
680 688 696 703 711 718 726 731 735 740 742 745 751 755 763 781 776 775 774 774 779 779 779 784 783 783 779 776 773 762 763 763 763 758 757 754 751 743 738 739 750 774 776 770 769 774 770
690 696 702 709 715 722 727 732 737 741 744 746 751 754 763 782 777 773 774 778 781 782 784 783 781 781 780 777 776 764 761 755 750 745 746 746 749 742 736 747 765 772 781 783 774 783 786
695 701 707 712 717 724 730 735 739 743 746 747 752 755 759 772 781 775 780 779 787 790 790 783 781 781 780 784 779 777 769 763 758 751 743 746 753 751 743 748 758 785 785 780 778 782 794
700 705 709 715 722 728 732 737 741 746 749 750 756 757 760 777 778 777 781 782 785 791 792 792 789 785 783 794 789 786 783 767 766 764 760 758 759 763 756 757 776 792 786 779 770 797 797
704 709 714 720 725 730 736 740 744 748 751 753 760 760 761 774 778 776 776 781 787 790 796 792 797 793 794 798 792 791 786 775 773 768 767 771 767 775 767 773 786 795 783 783 798 801 802
707 713 719 724 729 734 739 743 747 751 754 756 760 763 764 768 777 777 776 779 780 782 789 793 794 792 793 800 800 797 790 786 778 768 768 777 782 781 787 794 801 799 799 801 802 802 801